Location: Arrington
(35.8681°N, 86.7092°W)
Time: 19:37:09
(UTC+00:00)

STARLINK 1062 - Pass Details

Date: 23 November 2019
Orbit: 428 x 430 km, 53.0° (Epoch: 07 December)

Event Time Altitude Azimuth Distance (km) Brightness Sun altitude
Exits shadow 11:15:16 20° 233° (SW) 1,052 4.7 -15.2°
Maximum altitude 11:17:30 75° 317° (NW) 444 3.0 -14.8°
Drops below altitude 10° 11:20:54 10° 43° (NE) 1,517 6.2 -14.1°
Sets 11:23:01 0° 45° (NE) 2,385 7.3 -13.7°
